SL-16 DEB

Satellite information

Favourite Embed

Satellite Type and Status

DEBRISIN ORBIT

Key statistics

Satellite SL-16 DEB at a glance.

Uptime

11951

Days in orbit

Revolutions

≈ 14.4

Per day

Orbit

LEO

Low Earth Orbit

Inclination

71.0

Latest

Satellite identification and parameters

Extended collection of information and parameters for SL-16 DEB.

Object identification

Identified? True

Debris? True

Object name: SL-16 DEB

International designator: 1993-016E

Object number (NORAD): 22577

Object ID (CCSDS): 22577

Country: COMMONWEALTH OF INDEPENDENT STATES (CIS)

Current information (Y/N): Y

RCS size: MEDIUM

Orbital parameters

Period: 99.735 minutes

Inclination: 71.0409 deg

SMA: 7124.019 km

Apoapsis: 828.185 km

Periapsis: 663.584 km

RAAN: 12.6353 deg

Eccentricy: 0.01155251

Argument of periapsis: 10.9862 deg

Mean anomaly: 98.7177 deg

Mean motion: 14.43826851 rev/day

Mean motion (dot): 0.00000255 rev/day2

B* drag term: 0.000084275807 1/REarth

Two-line elements (TLE)

Creation date: Dec. 14, 2025, 3:07 a.m.

Reference frame: TEME

Reference center: EARTH

Epoch: Dec. 13, 2025, 12:26 p.m. UTC

TLE line 0: 0 SL-16 DEB

TLE line 1: 1 22577U 93016E 25347.51819138 .00000255 00000-0 84276-4 0 9992

TLE line 2: 2 22577 71.0409 12.6353 0115525 10.9862 98.7177 14.43826851722249

Live tracking on map

Real-time ground track for satellite SL-16 DEB.

In-orbit conjunctions

A list of the most updated potential collisions computed for object SL-16 DEB.

Target Orbit TCA Probability of collision Miss distance Type
FENGYUN 1C DEB SSO 2025-10-20 03:48:47 0.0001664494 106.0 (m) DEBRIS
CZ-4 DEB SSO 2025-08-25 05:58:16 0.0001201859 261.0 (m) DEBRIS

Associated space launch

Second generation ELING satellite

SL-16 DEB was lifted into orbit during the mission ‘Zenit-2 | Tselina-2 13’, on board a Zenit-2 space rocket.

The launch took place on March 26, 1993, 2:21 a.m. from 45/1.

For more information about the launch, click the button.

Launch to space Zenit-2 | Tselina-2 13
Zenit-2 | Tselina-2 13

Agency: N/A

Status: Launch Successful

Launch date: March 26, 1993, 2:21 a.m. UTC

Rocket: Zenit-2

Launch pad: 45/1

Location: Baikonur Cosmodrome, Republic of Kazakhstan

...

Latest news about this satellite

There are no fresh news available about this satellite. Check back as we update our databases every day.


Newsletter sign-up

Weekly statistics, charts and insights to help you stay on top of the space industry.